Lake Hood, AK

8:43 AM AKDT on April 29, 2017 (GMT -0800)
Lake Hood

Weather History for PALH - November, 2012

Change the Weather History Date:

Saturday, November 24, 2012

  Actual Average Record
Temperature  
Mean Temperature 12 °F -  
Max Temperature 19 °F 25 °F 48 °F (2015)
Min Temperature 6 °F 16 °F -2 °F (1996)
Degree Days  
Heating Degree Days 52    
Moisture  
Dew Point 5 °F    
Average Humidity 80    
Maximum Humidity 84    
Minimum Humidity 74    
Precipitation  
Precipitation 0.00 in - - ()
Sea Level Pressure  
Sea Level Pressure 29.88 in    
Wind  
Wind Speed 1 mph (East)    
Max Wind Speed 4 mph    
Max Gust Speed -    
Visibility 9 miles    
Events      
Averages and records for this station are not official NWS values.
T = Trace of Precipitation, MM = Missing Value Source: NWS Daily Summary

Daily Weather History Graph

Daily Weather History Graph

Search for Another Location

Airport or City:

Trip Planner

Search our weather history database for the weather conditions in past years. The results will help you decide how hot, cold, wet, or windy it might be!

Date:

Astronomy

Nov. 24, 2012 Rise Set
Actual Time 9:30 AM AKST 4:02 PM AKST
Civil Twilight 8:35 AM AKST 4:57 PM AKST
Nautical Twilight 7:39 AM AKST 5:53 PM AKST
Astronomical Twilight 6:47 AM AKST 6:45 PM AKST
Moon 2:37 PM AKST (11/24) 5:06 AM AKST (11/24)
Length of Visible Light 8h 22m
Length of Day
6h 31m
Waxing Gibbous, 88% of the Moon is Illuminated
Nov 24
Waxing Gibbous
Nov 28
Full
Dec 6
Last Quarter
Dec 12
New
Dec 19
First Quarter

Hourly Weather History & Observations

Time (AKST) Temp. Windchill Dew Point Humidity Pressure Visibility Wind Dir Wind Speed Gust Speed Precip Events Conditions
12:53 AM 8.1 °F 1.4 °F 3.0 °F 80% 29.77 in 7.0 mi SW 3.5 mph - N/A   Clear
1:53 AM 9.0 °F - 3.0 °F 77% 29.77 in 10.0 mi Calm Calm - N/A   Clear
3:53 AM 7.0 °F 0.1 °F 1.9 °F 80% 29.78 in 10.0 mi North 3.5 mph - N/A   Clear
4:53 AM 10.0 °F - 6.1 °F 84% 29.78 in 10.0 mi Calm Calm - N/A   Clear
5:53 AM 8.1 °F - 3.9 °F 83% 29.79 in 10.0 mi Calm Calm - N/A   Clear
6:53 AM 10.0 °F - 5.0 °F 80% 29.80 in 10.0 mi Calm Calm - N/A   Clear
7:53 AM 7.0 °F - 1.9 °F 80% 29.81 in 10.0 mi Calm Calm - N/A   Clear
8:53 AM 8.1 °F 1.4 °F 1.9 °F 76% 29.82 in 10.0 mi ESE 3.5 mph - N/A   Clear
9:53 AM 6.1 °F - 1.9 °F 83% 29.84 in 10.0 mi Calm Calm - N/A   Clear
10:53 AM 9.0 °F - 3.9 °F 80% 29.86 in 5.0 mi Calm Calm - N/A   Haze
11:53 AM 14.0 °F - 9.0 °F 80% 29.86 in 10.0 mi Calm Calm - N/A   Clear
12:53 PM 16.0 °F - 10.9 °F 81% 29.88 in 10.0 mi Calm Calm - N/A   Clear
1:53 PM 19.0 °F - 12.0 °F 74% 29.89 in 10.0 mi Calm Calm - N/A   Clear
2:53 PM 19.0 °F - 12.0 °F 74% 29.88 in 10.0 mi Calm Calm - N/A   Clear
3:53 PM 15.1 °F - 10.0 °F 80% 29.90 in 10.0 mi Calm Calm - N/A   Clear
4:53 PM 12.0 °F - 8.1 °F 84% 29.91 in 10.0 mi Calm Calm - N/A   Clear
5:53 PM 10.0 °F - 6.1 °F 84% 29.93 in 10.0 mi Calm Calm - N/A   Clear
6:53 PM 9.0 °F - 3.9 °F 80% 29.94 in 10.0 mi Calm Calm - N/A   Clear
7:53 PM 10.0 °F - 5.0 °F 80% 29.95 in 9.0 mi Calm Calm - N/A   Clear
8:53 PM 7.0 °F 0.1 °F 3.0 °F 84% 29.97 in 9.0 mi NE 3.5 mph - N/A   Clear
9:53 PM 7.0 °F 0.1 °F 3.0 °F 84% 30.00 in 8.0 mi SE 3.5 mph - N/A   Clear
10:53 PM 8.1 °F - 3.0 °F 80% 30.02 in 8.0 mi Calm Calm - N/A   Clear
11:53 PM 7.0 °F - 1.9 °F 80% 30.03 in 8.0 mi Calm Calm - N/A   Clear